Torna al catalogo

SL-8 DEB

AttivoLEO
NORAD 21711·DEBRIS·🇷🇺 Russia

Lanciato Jun 11, 1991 da Plesetsk Cosmodrome

Loading…

Prossimi Passaggi (prossime 24 ore)

TLE

AggiornatoSource: Space-Track

Epoca: Sep 13, 2026, 12:25 UTC

1 21711U 91041D   26256.51773782  .00000838  00000-0  20327-3 0  9994
2 21711  74.0149 273.1867 0010933  24.4482 129.4271 14.54477593853677

Traccia SL-8 DEB in tempo reale con AllMySat

Download on the App Store